Weather in Lensk

Russia / Sakha (Yakutia) Republic     60°42′49″N   114°54′42″E
temp.,
°C
wind,
m/s
gust,
m/s
humid.,
%
clouds,
%
prec.,
mm/h
press.,
hPa
HPBL,
m
29 november, mon
mon2900:00−16sse2298100 0.1 102445
03:00−17s1298100 0.3 102352
06:00−17s1198100 0.2 102220
09:00−17s1198100 0.4 102217
12:00−14ssw1395100 0.1 1021126
15:00−13sw1494100 0.3 1020332
18:00−15s1198100 0.1 102018
21:00−15s119899 0.3 101919
30 november, tue
tue3000:00−14sse1198100 0.2 101824
03:00−15sse1198100 0.5 101819
06:00−15sw1198100 0.3 101818
09:00−14wsw1397100 0.6 101984
12:00−14w3893100 0.4 1020562
15:00−15wsw4892100 0.6 1021735
18:00−17sw3892100 0.1 1021559
21:00−18s1396100 0.1 101987
1 december, wed
wed100:00−17se1297100 0.2 1014105
03:00−16ese2297100 0.5 1011137
06:00−16ese1297100 0.4 1008113
09:00−15se1197100 0.9 100680
12:00−14se1194100 0.4 1005141
15:00−13ne1194100 0.8 1003161
18:00−14nne1197100 0.3 100546
21:00−15nnw1298100 0.6 100749
2 december, thu
thu200:00−17nnw229894 0.1 101173
03:00−19nw1299100 0.3 1015117
06:00−20wnw1399100 0.1 1018182
09:00−21w2597100 0.2 1020338
12:00−21wsw3894100 0.1 1021442
15:00−20wsw4994100 0.3 1020590
18:00−20wsw31093100 0.1 1019609
21:00−20sw3994100 0.1 1016508
3 december, fri
fri300:00−21ssw1298100 0.0 101497
03:00−19sw1597100 0.3 1011328
06:00−19w1399100 0.3 1011170
09:00−20wnw2498100 0.4 1012323
12:00−20wnw2595100 0.1 1015429
15:00−22wnw239690 0.2 101768
18:00−29w1110093 0.0 10209
21:00−30ese11100100 0.0 102110